TimeMDT,TemperatureF,Dew PointF,Humidity,Sea Level PressureIn,VisibilityMPH,Wind Direction,Wind SpeedMPH,Gust SpeedMPH,PrecipitationIn,Events,Conditions,WindDirDegrees,DateUTC
12:53 AM,37.0,-9.0,14,30.34,10.0,NE,4.6,-,N/A,,Clear,50,2013-05-02 06:53:00
1:53 AM,32.0,-9.0,17,30.37,10.0,NNW,3.5,-,N/A,,Clear,340,2013-05-02 07:53:00
2:53 AM,30.9,-9.0,18,30.38,10.0,Calm,Calm,-,N/A,,Clear,0,2013-05-02 08:53:00
3:53 AM,24.1,-9.0,23,30.24,10.0,Calm,Calm,-,N/A,,Clear,0,2013-05-02 09:53:00
4:53 AM,21.9,-8.0,27,30.27,10.0,South,3.5,-,N/A,,Clear,190,2013-05-02 10:53:00
5:53 AM,24.1,-8.0,24,30.30,10.0,Calm,Calm,-,N/A,,Clear,0,2013-05-02 11:53:00
7:53 AM,39.0,3.0,22,30.32,10.0,NNE,9.2,-,N/A,,Clear,20,2013-05-02 13:53:00
8:53 AM,43.0,-0.0,17,30.34,10.0,North,13.8,-,N/A,,Clear,350,2013-05-02 14:53:00
9:53 AM,46.0,-5.1,12,30.34,10.0,North,8.1,17.3,N/A,,Clear,360,2013-05-02 15:53:00
10:53 AM,48.9,1.0,14,30.32,10.0,Variable,3.5,-,N/A,,Clear,0,2013-05-02 16:53:00
11:53 AM,52.0,-2.9,10,30.32,10.0,Variable,4.6,-,N/A,,Clear,0,2013-05-02 17:53:00
12:53 PM,54.0,-4.0,9,30.31,10.0,ENE,10.4,16.1,N/A,,Clear,70,2013-05-02 18:53:00
1:53 PM,55.9,-5.1,8,30.32,10.0,Variable,3.5,-,N/A,,Clear,0,2013-05-02 19:53:00
2:53 PM,57.0,-8.0,7,30.30,10.0,Variable,5.8,-,N/A,,Clear,0,2013-05-02 20:53:00
3:53 PM,59.0,-11.9,5,30.30,10.0,Variable,5.8,-,N/A,,Clear,0,2013-05-02 21:53:00
4:53 PM,57.9,-13.0,5,30.30,10.0,ESE,9.2,-,N/A,,Clear,120,2013-05-02 22:53:00
5:53 PM,57.0,-11.9,6,30.29,10.0,East,10.4,20.7,N/A,,Clear,100,2013-05-02 23:53:00
6:53 PM,55.0,-11.0,6,30.30,10.0,ENE,11.5,-,N/A,,Clear,60,2013-05-03 00:53:00
7:53 PM,51.1,-9.9,8,30.25,10.0,ENE,9.2,-,N/A,,Clear,70,2013-05-03 01:53:00
8:53 PM,48.0,-9.0,9,30.25,10.0,ENE,6.9,-,N/A,,Clear,70,2013-05-03 02:53:00
9:53 PM,42.1,-4.0,14,30.28,10.0,North,5.8,-,N/A,,Clear,350,2013-05-03 03:53:00
10:53 PM,37.0,-0.9,20,30.29,10.0,Calm,Calm,-,N/A,,Clear,0,2013-05-03 04:53:00
11:53 PM,33.1,-0.9,23,30.28,10.0,Calm,Calm,-,N/A,,Clear,0,2013-05-03 05:53:00